EW5024 Weather Reports


Display with metric or nautical units.
time (UTC)temp
F
wind
direction
speed
MPH
gust
MPH
rain 1hr
in
rain 24hr
in
rain mn
in
humidity
%
barometer
mb
20260504193008 70 134 8.0 16.0 0.00 0.00 0.00 38 1015.1
20260504191509 71 225 13.0 26.0 0.00 0.00 0.00 38 1014.9
20260504190007 71 159 11.0 23.0 0.00 0.00 0.00 38 1014.7
20260504184510 71 157 12.0 20.0 0.00 0.00 0.00 38 1014.6
20260504183009 71 186 13.0 26.0 0.00 0.00 0.00 38 1014.6
20260504181506 71 200 9.0 17.0 0.00 0.00 0.00 38 1014.5
20260504180005 72 178 13.0 19.0 0.00 0.00 0.00 38 1014.3
20260504174504 72 190 13.0 27.0 0.00 0.00 0.00 37 1014.2
20260504173002 72 186 17.0 28.0 0.00 0.00 0.00 36 1014.0
20260504171502 72 208 14.0 29.0 0.00 0.00 0.00 36 1014.0
20260504081557 67 285 1.0 3.0 0.00 0.00 0.00 48 1017.8
20260504044543 55 198 0.0 1.0 0.00 0.00 0.00 72 1017.8
20260504043043 55 199 0.0 0.0 0.00 0.00 0.00 71 1017.7
20260504041539 55 200 0.0 2.0 0.00 0.00 0.00 71 1017.6
20260504040039 56 200 0.0 0.0 0.00 0.00 0.00 70 1017.5
20260504034535 56 200 0.0 0.0 0.00 0.00 0.00 69 1017.5
20260504033034 56 200 0.0 0.0 0.00 0.00 0.00 69 1017.5
20260504031537 57 200 0.0 2.0 0.00 0.00 0.00 68 1017.4
20260504030030 58 199 1.0 2.0 0.00 0.00 0.00 66 1017.4
20260504024527 58 196 1.0 3.0 0.00 0.00 0.00 65 1017.4
20260504023026 58 196 0.0 3.0 0.00 0.00 0.00 64 1017.5
20260504021523 59 146 0.0 0.0 0.00 0.00 0.00 63 1017.5
20260504020022 60 148 0.0 3.0 0.00 0.00 0.00 60 1017.3
20260504014525 61 150 1.0 3.0 0.00 0.00 0.00 57 1017.3
20260504013017 61 88 1.0 3.0 0.00 0.00 0.00 58 1017.3
20260504011512 62 160 0.0 3.0 0.00 0.00 0.00 54 1017.3
20260504010011 63 161 1.0 4.0 0.00 0.00 0.00 52 1017.3
20260504004518 63 184 2.0 4.0 0.00 0.00 0.00 53 1017.3
20260504003008 63 222 2.0 3.0 0.00 0.00 0.00 53 1017.4
20260504001508 64 219 0.0 3.0 0.00 0.00 0.00 51 1017.5
20260504000007 63 209 2.0 6.0 0.00 0.00 0.00 51 1017.6
20260503234504 64 186 1.0 3.0 0.00 0.00 0.00 51 1017.6
20260503233005 65 161 0.0 3.0 0.00 0.00 0.00 49 1017.5
20260503231600 65 132 1.0 4.0 0.00 0.00 0.00 47 1017.5
20260503230059 65 132 2.0 5.0 0.00 0.00 0.00 47 1017.6
20260503224558 66 135 2.0 5.0 0.00 0.00 0.00 46 1017.6
20260503223057 66 139 3.0 7.0 0.00 0.00 0.00 45 1017.7
20260503221559 66 151 1.0 5.0 0.00 0.00 0.00 44 1017.6
20260503220051 66 153 4.0 7.0 0.00 0.00 0.00 42 1017.4
20260503214551 67 161 5.0 9.0 0.00 0.00 0.00 41 1017.2
20260503213050 67 126 4.0 10.0 0.00 0.00 0.00 41 1017.1
20260503211550 67 163 7.0 10.0 0.00 0.00 0.00 41 1017.1
20260503210049 67 128 9.0 13.0 0.00 0.00 0.00 40 1017.0
20260503204552 67 121 9.0 12.0 0.00 0.00 0.00 41 1016.8
20260503203055 68 115 8.0 14.0 0.00 0.00 0.00 39 1016.9
20260503201551 68 153 9.0 14.0 0.00 0.00 0.00 39 1016.8
20260503200054 69 146 6.0 13.0 0.00 0.00 0.00 38 1016.6
20260503194556 70 119 8.0 12.0 0.00 0.00 0.00 36 1016.5